Time,TemperatureF,DewpointF,PressureIn,WindDirection,WindDirectionDegrees,WindSpeedMPH,WindSpeedGustMPH,Humidity,HourlyPrecipIn,Conditions,Clouds,dailyrainin,SoftwareType,DateUTC
2013-06-29 00:00:00,57.0,41.0,29.92,West,270,0.0,3.0,55,0.00,,---,0.00,VWS V14.01,2013-06-29 06:00:00,
2013-06-29 00:30:00,56.8,39.9,29.92,West,270,0.0,2.0,53,0.00,,---,0.00,VWS V14.01,2013-06-29 06:30:00,
2013-06-29 01:00:00,54.9,39.5,29.92,West,270,0.0,4.0,56,0.00,,---,0.00,VWS V14.01,2013-06-29 07:00:00,
2013-06-29 01:30:00,54.6,40.1,29.93,ESE,112,1.0,6.0,58,0.00,,---,0.00,VWS V14.01,2013-06-29 07:30:00,
2013-06-29 02:00:00,56.2,39.3,29.92,WNW,292,2.0,6.0,53,0.00,,---,0.00,VWS V14.01,2013-06-29 08:00:00,
2013-06-29 02:30:00,55.4,39.0,29.91,NW,315,2.0,8.0,54,0.00,,---,0.00,VWS V14.01,2013-06-29 08:30:00,
2013-06-29 03:00:00,56.3,39.4,29.91,WNW,292,4.0,12.0,53,0.00,,---,0.00,VWS V14.01,2013-06-29 09:00:00,
2013-06-29 03:30:00,56.0,39.1,29.91,WNW,292,7.0,16.0,53,0.00,,---,0.00,VWS V14.01,2013-06-29 09:30:00,
2013-06-29 04:00:00,54.8,38.5,29.91,WNW,292,5.0,11.0,54,0.00,,---,0.00,VWS V14.01,2013-06-29 10:00:00,
2013-06-29 04:30:00,54.2,38.4,29.92,WNW,292,6.0,12.0,55,0.00,,---,0.00,VWS V14.01,2013-06-29 10:30:00,
2013-06-29 05:00:00,52.9,38.5,29.92,NW,315,3.0,8.0,58,0.00,,---,0.00,VWS V14.01,2013-06-29 11:00:00,
2013-06-29 05:30:00,52.5,38.2,29.91,NW,315,4.0,10.0,58,0.00,,---,0.00,VWS V14.01,2013-06-29 11:30:00,
2013-06-29 06:00:00,51.8,38.4,29.92,NW,315,3.0,7.0,60,0.00,,---,0.00,VWS V14.01,2013-06-29 12:00:00,
2013-06-29 06:30:00,51.6,38.6,29.91,NW,315,4.0,10.0,61,0.00,,---,0.00,VWS V14.01,2013-06-29 12:30:00,
2013-06-29 07:00:00,50.9,38.4,29.92,NW,315,5.0,10.0,62,0.00,,---,0.00,VWS V14.01,2013-06-29 13:00:00,
2013-06-29 07:30:00,53.0,39.1,29.92,NW,315,5.0,12.0,59,0.00,,---,0.00,VWS V14.01,2013-06-29 13:30:00,
2013-06-29 08:00:00,57.2,39.8,29.91,WNW,292,5.0,15.0,52,0.00,,---,0.00,VWS V14.01,2013-06-29 14:00:00,
2013-06-29 08:30:00,59.9,39.6,29.90,WNW,292,6.0,16.0,47,0.00,,---,0.00,VWS V14.01,2013-06-29 14:30:00,
2013-06-29 09:00:00,62.6,40.4,29.89,WNW,292,6.0,13.0,44,0.00,,---,0.00,VWS V14.01,2013-06-29 15:00:00,
2013-06-29 09:30:00,65.6,40.7,29.87,WNW,292,6.0,13.0,40,0.00,,---,0.00,VWS V14.01,2013-06-29 15:30:00,
2013-06-29 10:00:00,69.6,40.8,29.85,WNW,292,5.0,12.0,35,0.00,,---,0.00,VWS V14.01,2013-06-29 16:00:00,
2013-06-29 10:30:00,72.0,40.6,29.84,West,270,5.0,11.0,32,0.00,,---,0.00,VWS V14.01,2013-06-29 16:30:00,
2013-06-29 11:00:00,74.1,39.8,29.83,WNW,292,2.0,8.0,29,0.00,,---,0.00,VWS V14.01,2013-06-29 17:00:00,
2013-06-29 11:30:00,72.6,40.3,29.81,SE,135,1.0,2.0,31,0.00,,---,0.00,VWS V14.01,2013-06-29 17:30:00,
2013-06-29 12:00:00,73.3,42.5,29.80,East,90,1.0,2.0,33,0.00,,---,0.00,VWS V14.01,2013-06-29 18:00:00,
2013-06-29 12:30:00,72.7,38.6,29.79,ENE,68,2.0,10.0,29,0.00,,---,0.00,VWS V14.01,2013-06-29 18:30:00,
2013-06-29 13:00:00,63.9,47.4,29.83,WNW,292,6.0,18.0,55,0.00,,---,0.00,VWS V14.01,2013-06-29 19:00:00,
2013-06-29 13:30:00,58.7,52.6,29.82,East,90,2.0,15.0,80,0.04,,---,0.04,VWS V14.01,2013-06-29 19:30:00,
2013-06-29 14:00:00,59.3,53.5,29.81,West,270,2.0,5.0,81,0.04,,---,0.04,VWS V14.01,2013-06-29 20:00:00,
2013-06-29 14:30:00,63.9,53.1,29.78,East,90,1.0,4.0,68,0.04,,---,0.04,VWS V14.01,2013-06-29 20:30:00,
2013-06-29 15:00:00,72.1,43.7,29.76,East,90,5.0,16.0,36,0.00,,---,0.04,VWS V14.01,2013-06-29 21:00:00,
2013-06-29 15:30:00,73.1,41.5,29.76,ENE,68,5.0,15.0,32,0.00,,---,0.04,VWS V14.01,2013-06-29 21:30:00,
2013-06-29 16:00:00,73.2,42.4,29.75,East,90,4.0,13.0,33,0.00,,---,0.04,VWS V14.01,2013-06-29 22:00:00,
2013-06-29 16:30:00,74.4,41.8,29.75,East,90,2.0,6.0,31,0.00,,---,0.04,VWS V14.01,2013-06-29 22:30:00,
2013-06-29 17:00:00,61.1,51.2,29.82,NE,45,4.0,19.0,70,0.05,,---,0.09,VWS V14.01,2013-06-29 23:00:00,
2013-06-29 17:30:00,60.1,51.1,29.84,East,90,3.0,10.0,72,0.06,,---,0.10,VWS V14.01,2013-06-29 23:30:00,
2013-06-29 18:00:00,60.6,51.5,29.85,East,90,3.0,10.0,72,0.06,,---,0.10,VWS V14.01,2013-06-30 00:00:00,
2013-06-29 18:30:00,60.0,53.5,29.85,East,90,1.0,4.0,79,0.01,,---,0.10,VWS V14.01,2013-06-30 00:30:00,
2013-06-29 19:00:00,58.7,52.9,29.87,SE,135,0.0,2.0,81,0.00,,---,0.10,VWS V14.01,2013-06-30 01:00:00,
2013-06-29 19:30:00,55.8,52.0,29.90,West,270,1.0,3.0,87,0.02,,---,0.12,VWS V14.01,2013-06-30 01:30:00,
2013-06-29 20:00:00,54.8,51.9,29.90,West,270,2.0,11.0,90,0.07,,---,0.17,VWS V14.01,2013-06-30 02:00:00,
2013-06-29 20:30:00,54.1,51.5,29.86,NW,315,1.0,7.0,91,0.07,,---,0.17,VWS V14.01,2013-06-30 02:30:00,
2013-06-29 21:00:00,53.7,51.1,29.89,West,270,2.0,7.0,91,0.05,,---,0.17,VWS V14.01,2013-06-30 03:00:00,
2013-06-29 21:30:00,53.4,50.2,29.91,WNW,292,2.0,12.0,89,0.00,,---,0.17,VWS V14.01,2013-06-30 03:30:00,
2013-06-29 22:00:00,52.6,49.8,29.92,WNW,292,3.0,8.0,90,0.00,,---,0.17,VWS V14.01,2013-06-30 04:00:00,
2013-06-29 22:30:00,51.6,49.7,29.92,NW,315,3.0,6.0,93,0.00,,---,0.17,VWS V14.01,2013-06-30 04:30:00,
2013-06-29 23:00:00,52.3,49.2,29.91,WNW,292,5.0,14.0,89,0.00,,---,0.17,VWS V14.01,2013-06-30 05:00:00,
2013-06-29 23:30:00,52.0,48.9,29.92,WNW,292,7.0,14.0,89,0.00,,---,0.17,VWS V14.01,2013-06-30 05:30:00,